Flag for Germany Weather past 2 weeks in Laatzen, Lower Saxony, Germany

Now
52 °F

Overcast.


Feels Like: 51 °F
Forecast: 43 / 54 °F
Wind: 5 mph from Southwest

Location: Hannover

Current Time: Dec 18, 2014 at 2:11:02 PM

Latest Report: Dec 18, 2014 at 1:00 PM


Visibility: 16 mi

Pressure: 29.76 "Hg

Humidity: 88%

Dew point: 49 °F

Location of LaatzenLocation

Historic Weather in Laatzen — Graph

°F

Laatzen temperature yesterday

Maximum temperature yesterday: 47 °F (at 11:00 PM)
Minimum temperature yesterday: 34 °F (at 4:00 AM)
Average temperature yesterday: 40 °F

Past Weeks' High & Low Weather Summary

 TemperatureHumidityPressure
High52 °F (Dec 18, 1:00 PM)100% (Dec 7, 6:00 AM)30.37 "Hg (Dec 7, 6:00 AM)
Low26 °F (Dec 3, 1:00 PM)62% (Dec 7, 5:00 PM)29.32 "Hg (Dec 12, 2:00 PM)
Average39 °F86%29.95 "Hg
* Reported Dec 3 1:00 PM — Dec 18 1:00 PM, Laatzen, Weather by CustomWeather, © 2014

Note: Actual official high and low records may vary slightly from our data, if they occured in-between our weather recording intervals... More about our weather records

Advertising

Laatzen weather history for previous 24 hours

 ConditionsComfort  
Time TempWeatherWind HumidityBarometerVisibility
1:00 PM
Dec 18
52 °FOvercast.5 mph88%29.76 "Hg16 mi
12:00 PM52 °FLow clouds.5 mph89%29.77 "Hg8 mi
11:00 AM52 °FOvercast.6 mph90%29.78 "Hg6 mi
9:00 AM51 °FOvercast.5 mph91%29.78 "Hg6 mi
8:00 AM51 °FLow clouds.5 mph91%29.78 "Hg5 mi
7:00 AM50 °FLow clouds.5 mph92%29.78 "Hg4 mi
6:00 AM49 °FOvercast.3 mph90%29.78 "Hg4 mi
5:00 AM50 °FPassing clouds.6 mph89%29.78 "Hg6 mi
3:00 AM49 °FOvercast.6 mph90%29.78 "Hg6 mi
2:00 AM49 °FOvercast.6 mph91%29.76 "Hg6 mi
1:00 AM48 °FOvercast.5 mph92%29.75 "Hg6 mi
12:00 AM47 °FOvercast.5 mph92%29.74 "Hg7 mi
11:00 PM
Dec 17
47 °FLow clouds.5 mph91%29.72 "Hg9 mi
9:00 PM47 °FLow clouds.6 mph93%29.66 "Hg6 mi
8:00 PM46 °FLow clouds.6 mph95%29.63 "Hg6 mi
7:00 PM45 °FLight rain. Low clouds.5 mph96%29.61 "Hg2 mi
6:00 PM44 °FLow clouds.6 mph94%29.59 "Hg6 mi
5:00 PM42 °FLow clouds.5 mph96%29.57 "Hg5 mi
4:00 PM40 °FLight rain. Low clouds.6 mph95%29.56 "Hg2 mi
3:00 PM39 °FLight rain. Overcast.6 mph91%29.57 "Hg6 mi
2:00 PM39 °FLight rain. Overcast.7 mph88%29.57 "Hg7 mi
Weather by CustomWeather, © 2014

See weather overviewHow to use our weather pages